Regional Weather Roundup
Issued by NWS Newport/Morehead, NC

Current Version | Previous Version | Text Only | Print | Product List | Glossary On
Versions: 1 2 3 4 5 6 7 8 9 10 11 12 13 14 15 16 17 18 19 20 21 22 23 24 25 26 27 28 29 30 31 32 33 34 35 36 37 38 39 40 41 42 43 44 45 46 47 48 49 50
000 ASUS42 KMHX 301713 RWRMHX WEATHER ROUNDUP FOR EASTERN NORTH CAROLINA NATIONAL WEATHER SERVICE NEWPORT/MOREHEAD CITY NC 100 PM EDT TUE AUG 30 2016 NOTE: "FAIR" INDICATES FEW OR NO CLOUDS BELOW 12,000 FEET WITH NO SIGNIFICANT WEATHER AND/OR OBSTRUCTIONS TO VISIBILITY NCZ015>017-031-032-045>047-102-103-301800- NORTH COAST CITY SKY/WX TMP DP RH WIND PRES REMARKS EDENTON CLOUDY 86 72 62 NE6 30.08F ELIZABETH CITY PTSUNNY 85 73 67 NE14 30.08S KITTY HAWK CLOUDY 86 79 81 NE9 30.05F MANTEO CLOUDY 84 77 78 NE13 30.06S $$ NCZ045>047-081-094-103-104-301800- CENTRAL COAST CITY SKY/WX TMP DP RH WIND PRES REMARKS FRISCO CLOUDY 85 77 77 NE8G17 30.02F $$ NCZ095-097-098-100-101-301800- SOUTHERN COAST CITY SKY/WX TMP DP RH WIND PRES REMARKS BEAUFORT CLOUDY 85 77 77 NE12 30.02F CEDAR ISLAND NOT AVBL JACKSONVILLE PTSUNNY 86 74 67 N7 30.05F PINEY ISLAND NOT AVBL WILMINGTON CLOUDY 85 75 72 NW7 30.05F $$ NCZ011>013-027>030-043-044-078>080-089-090>093-098-301800- COASTAL PLAIN CITY SKY/WX TMP DP RH WIND PRES REMARKS AHOSKIE MOSUNNY 85 70 60 NE7 30.08F CLINTON SUNNY 87 71 58 NE7 30.08F ELIZABETHTOWN CLOUDY 84 73 68 N3 30.08S GOLDSBORO SUNNY 87 68 51 N8 30.07F GREENVILLE PTSUNNY 88 72 58 NE7 30.08F HAVELOCK MOSUNNY 87 75 67 NE10 30.04F KENANSVILLE CLOUDY 84 70 61 N7 30.08S KINSTON PTSUNNY 86 68 54 NE9 30.08F NEW BERN MOSUNNY 84 75 74 N8 30.06F RICHLANDS CLOUDY 84 75 74 N7 30.07F ROCKY MOUNT SUNNY 88 67 49 NE8 30.09F WASHINGTON MOSUNNY 83 74 74 NE9 30.06F WHITEVILLE MOSUNNY 84 72 66 E3 30.06F $$ AMZ130-135-150-152-154-156-158-170-250-252-270-ANZ085-086-088-633-658-670-301800- MARINE OBSERVATIONS STATION/POSITION TIME TEMP WIND PRES WAVE SWELL AIR SEA DIR/SP/G HT/PER HT/PER (UTC) (F) (DEG/KT/KT) (MB) (FT/S) (FT/S) CHESAPEAKE LIGHT NOT AVBL 64 E VA BEACH 1650 80 81 60/ 14/ 16 1018.0 5/11 5/11 DUCK 1600 80 80 40/ 15/ 16 1017.9 2 E DUCK 1611 79 N/A 4/13 2/13 OREGON INLET 1600 81 81 40/ 10/ 13 1017.8 13E OREGON INLT 1700 80 N/A 5/13 5/13 HATTERAS CG 1600 83 82 50/ 10/ 13 1016.6 DIAMOND BUOY 1650 83 85 60/ 16/ 19 1015.8 7/12 5/12 CAPE LOOKOUT 1700 83 40/ 15/ 17 1016.2 BEAUFORT LAB 1600 81 81 10/ 2/ 3 1016.6 30 SE NEW RVR IN 1608 81 84 10/ 12/ 17 1016.8 30 SE NEW RVR IN 1625 84 N/A 4/12 2/12 27 SE WRIGHTSVLE 1608 81 83 10/ 16/ 19 1017.2 5 SE WRIGHTSVLE 1608 80 83 20/ 10/ 12 1018.7 225 S CAPE HAT 1650 84 84 240/ 10/ 12 1016.7 4/10 3/10 41 SE CHARLESTON 1650 80 85 190/ 2/ 2 1017.5 3/11 3/11 $$

USA.gov is the U.S. government's official web portal to all federal, state and local government web resources and services.